EHI
0 0 0 0 0 0 0 0 1 3 5 8 15 21 24 22 18 16 15 12 10 9 8 8 11 14 16 16 15 14 10 6 4 2 2 2 2 1 1 1 0 0 0 0
0 0 0 0 0 0 0 0 1 3 4 6 11 15 15 14 13 11 9 7 6 6 4 5 7 9 9 9 9 8 6 3 1 1 2 2 2 1 1 0 0 0 0 0
0 0 0 0 0 0 0 0 1 2 2 3 5 6 6 6 7 6 4 2 2 2 2 2 3 3 4 3 2 2 1 0 0 0 1 1 1 1 0 0 0 0 0 0
0 0 0 0 0 0 0 0 0 1 1 1 1 1 2 4 5 4 3 1 0 1 1 1 1 1 2 2 1 0 0 0 0 0 0 0 0 0 0 0 0 0 0 0
0 0 0 0 0 0 0 0 0 0 0 0 0 0 1 2 3 2 1 0 0 1 1 1 0 0 1 1 0 0 0 0 0 0 0 0 0 0 0 0 0 0 0 0
0 0 0 0 0 0 0 0 0 0 0 0 0 0 0 1 1 1 0 0 0 0 0 1 0 0 0 0 0 0 0 0 0 0 0 0 0 0 0 0 0 0 0 0
0 0 0 0 0 0 0 0 0 0 0 0 0 0 0 0 0 1 0 0 0 0 0 0 0 0 0 0 0 0 0 0 0 0 0 0 0 0 0 0 0 0 0 0
0 0 0 0 0 0 0 0 0 0 0 0 0 0 0 0 0 0 0 0 0 0 0 0 0 0 0 0 0 0 0 0 0 0 0 0 0 0 0 0 0 0 0 0
0 0 0 0 0 0 0 0 0 0 0 0 0 0 0 0 0 0 0 0 1 0 0 0 0 0 0 0 0 0 0 0 0 0 0 0 0 0 0 0 0 0 0 0
0 0 0 0 0 0 0 0 0 0 0 0 0 0 0 0 0 0 0 0 0 0 0 0 0 0 0 0 0 0 0 0 0 0 0 0 0 0 0 0 0 0 0 0
0 0 0 0 0 0 0 0 0 0 0 0 0 0 0 0 0 0 0 0 0 0 0 0 0 0 0 0 0 0 0 0 0 0 0 0 0 0 0 0 0 0 0 0
0 0 0 0 0 0 0 0 0 0 0 0 0 0 0 0 0 0 0 0 0 0 0 0 0 0 0 0 0 0 0 0 0 0 0 0 0 0 0 0 0 0 0 0
0 0 0 0 0 0 0 0 0 0 0 0 0 0 0 0 0 0 0 0 0 0 0 0 0 0 0 0 0 0 0 0 0 0 0 0 0 0 0 0 0 0 0 0
0 0 0 0 0 0 0 0 0 0 0 0 0 0 0 0 0 0 0 0 0 0 0 0 0 0 0 0 0 0 0 0 0 0 0 0 0 0 0 0 0 0 0 0
0 0 0 0 0 0 0 0 0 0 0 0 0 0 0 0 0 0 0 0 0 0 0 0 0 0 0 0 0 0 0 0 0 0 0 0 0 0 0 0 0 0 0 0
0 0 0 0 0 0 0 0 0 0 0 0 0 0 0 0 0 0 0 0 0 0 0 0 0 0 0 0 0 0 0 0 0 0 0 0 0 0 0 0 0 0 0 0
0 0 0 0 0 0 0 0 0 0 0 0 0 0 0 0 0 0 0 0 0 0 0 0 0 0 0 0 0 0 0 0 0 0 0 0 0 0 0 0 0 0 0 0
0 0 0 0 0 0 0 0 0 0 0 0 0 0 0 0 0 0 0 0 0 0 0 0 0 0 0 0 0 0 0 0 0 0 0 0 0 0 0 0 0 0 0 0
0 0 0 0 0 0 0 0 0 0 0 0 0 0 0 0 0 0 0 0 0 0 0 0 0 0 0 0 0 0 0 0 0 0 0 0 0 0 0 0 0 0 0 0
0 0 0 0 0 0 0 0 0 0 0 0 0 0 0 0 0 0 0 0 0 0 0 0 0 0 0 0 0 0 0 0 0 0 0 0 0 0 0 0 0 0 0 0
0 0 0 0 0 0 0 0 0 0 0 0 0 0 0 0 0 0 0 0 0 0 0 0 0 0 0 0 0 0 0 0 0 0 0 0 0 0 0 0 0 0 0 0
0 0 0 0 0 0 0 0 0 0 0 0 0 0 0 0 0 0 0 0 0 0 0 0 0 0 0 0 0 0 0 0 0 0 0 0 0 0 0 0 0 0 0 0
0 0 0 0 0 0 0 0 0 0 0 0 0 0 0 0 0 0 0 0 0 0 0 0 0 0 0 0 0 0 0 0 0 0 0 0 0 0 0 0 0 0 0 0
0 0 0 0 0 0 0 0 0 0 0 0 0 0 0 0 0 0 0 0 0 0 0 0 0 0 0 0 0 0 0 0 0 0 0 0 0 0 0 0 0 0 0 0
0 0 0 0 0 0 0 0 0 0 0 0 0 0 0 0 0 0 0 0 0 0 0 0 0 0 0 0 0 0 0 0 0 0 0 0 0 0 0 0 0 0 0 0
0 0 0 0 0 0 0 0 0 0 0 0 0 0 0 0 0 0 0 0 0 0 0 0 0 0 0 0 0 0 0 0 0 0 0 0 0 0 0 0 0 0 0 0
Wind_Speed
2 2 4 8 7 6 2 2 3 3 5 10 12 10 8 7 5 6 5 5 5 5 5 5 5 5 5 5 5 5 5 4 3 3 2 2 2 2 2 1 1 0 1 1
4 5 10 8 4 1 1 1 1 1 5 7 8 8 3 2 1 3 4 2 3 3 4 4 4 4 4 4 4 4 4 3 3 2 1 1 0 1 1 2 2 2 2 2
5 7 4 2 3 1 1 2 2 2 5 7 7 3 2 2 1 2 4 4 3 5 5 5 5 4 4 4 5 4 4 3 3 2 2 2 3 2 3 3 3 3 3 3
3 4 2 3 2 1 3 3 4 4 4 1 2 1 4 3 2 2 3 4 5 5 5 5 6 5 5 5 5 5 4 4 3 3 3 2 1 1 2 2 2 4 4 4
4 3 2 3 3 2 3 2 5 5 5 3 4 2 4 1 3 3 4 5 6 6 7 7 7 7 6 6 5 5 4 3 3 3 3 3 2 2 2 2 3 4 4 4
4 2 2 3 3 3 5 7 6 6 5 4 3 0 4 3 3 3 3 4 5 6 6 6 6 5 4 4 4 3 3 3 3 3 3 3 4 3 3 3 3 3 3 3
6 5 3 1 3 3 4 5 4 5 5 1 3 1 6 5 5 5 5 4 3 4 5 5 5 5 4 3 2 2 2 2 3 2 2 3 4 4 4 4 4 4 3 3
2 6 5 2 2 2 1 6 5 3 2 1 2 2 7 6 5 4 5 4 4 4 4 4 5 4 2 1 1 2 1 1 1 2 3 3 3 3 3 4 4 4 4 4
2 4 5 3 1 3 2 1 5 7 4 2 1 3 6 4 3 3 3 4 5 5 4 3 3 3 3 3 2 2 2 0 2 2 3 3 3 3 4 4 4 4 4 4
4 1 4 4 5 4 4 4 5 5 5 2 1 3 5 5 5 5 4 5 5 3 3 4 4 3 3 3 2 2 1 1 2 2 2 2 3 3 4 4 4 5 5 4
3 3 5 5 2 1 3 3 5 4 5 6 3 5 6 8 7 6 6 6 5 5 5 4 3 3 2 2 1 1 1 1 2 3 3 3 4 4 4 3 4 5 5 5
2 5 1 5 4 2 3 3 5 4 0 4 4 5 4 7 6 7 6 5 5 6 5 4 3 2 1 1 1 1 2 2 3 3 3 4 4 4 4 5 6 5 6 6
4 6 4 8 9 4 0 2 4 6 5 4 5 4 1 4 5 5 6 5 5 5 4 2 1 0 0 1 2 2 3 3 3 3 3 4 5 5 6 6 6 6 6 6
6 5 6 5 7 5 2 2 2 6 4 3 6 6 3 5 5 5 5 5 5 5 4 2 1 1 2 2 2 3 3 3 3 3 4 5 6 6 7 7 7 7 7 7
5 2 2 4 5 3 2 2 3 5 7 7 7 8 8 8 7 5 5 5 5 4 3 2 2 2 3 3 3 3 3 4 4 4 5 6 7 6 6 6 7 7 7 8
3 2 1 5 6 5 3 1 3 4 5 7 8 5 6 4 4 4 5 6 5 3 3 2 2 2 3 3 3 3 4 5 4 5 6 6 6 6 6 7 7 7 7 7
2 4 2 3 7 5 3 2 4 4 4 9 7 6 5 5 6 7 6 5 5 4 3 2 2 3 3 3 3 3 4 5 5 5 6 6 6 7 7 8 7 7 7 7
6 5 3 1 5 2 6 1 8 8 4 5 6 6 7 7 6 5 6 6 5 4 3 2 2 2 3 3 3 3 4 5 5 5 6 6 7 7 7 7 8 8 7 7
7 7 4 3 1 4 3 1 5 7 2 2 7 6 5 6 4 0 3 5 6 4 3 3 3 3 2 3 3 3 4 5 5 6 6 7 7 8 8 9 9 8 7 7
5 6 5 3 2 4 7 4 5 9 1 3 7 7 7 6 2 4 5 5 4 3 2 2 2 1 2 3 3 3 5 5 6 7 7 7 7 8 9 9 9 7 7 8
2 2 3 4 4 6 7 4 4 3 8 7 8 8 7 7 7 6 6 5 4 3 2 2 1 1 3 4 3 4 5 6 7 7 7 8 8 8 9 8 7 7 7 7
6 4 4 4 3 7 6 4 6 9 6 7 8 8 7 7 6 6 7 5 4 2 1 1 1 3 4 3 3 4 6 6 6 7 8 8 8 8 8 8 8 7 7 7
3 7 6 8 9 9 6 8 8 8 8 8 8 8 9 8 7 7 6 5 3 2 2 2 2 3 4 4 3 5 6 6 6 7 8 9 9 8 8 7 8 7 6 5
4 2 3 2 6 5 4 4 6 7 8 8 8 9 9 8 8 7 6 4 4 3 2 2 1 2 4 4 4 5 6 5 6 7 8 8 8 9 8 6 5 5 5 5
5 2 2 3 5 1 1 5 7 6 6 7 7 8 9 10 8 7 6 6 4 3 2 2 2 3 4 4 5 5 5 5 6 7 8 8 7 8 8 7 6 6 5 5
3 3 3 6 7 6 7 7 8 8 8 9 9 7 7 9 9 8 6 5 4 3 3 2 2 3 4 4 4 5 4 5 6 7 7 7 7 7 7 7 7 8 7 8
Wind_Direction
295 108 242 243 218 214 248 313 330 347 69 79 83 76 53 47 55 77 72 80 92 105 117 117 116 110 101 88 82 79 77 63 59 53 48 40 15 356 357 334 316 314 294 295
355 277 252 247 252 299 20 348 326 43 70 90 89 76 55 60 53 112 120 122 120 120 117 118 119 112 103 101 97 94 93 89 85 96 107 125 142 321 322 339 340 321 301 285
213 251 290 282 269 351 291 190 185 143 73 78 98 54 307 255 223 144 144 163 173 165 154 149 139 138 136 141 151 145 148 136 128 117 86 51 37 18 4 347 329 315 304 282
257 270 333 323 283 178 266 214 154 137 111 52 110 166 263 258 282 218 192 184 181 179 171 170 166 169 172 177 171 166 165 161 155 134 119 124 135 225 252 262 283 304 308 296
283 280 320 287 263 139 191 121 109 113 110 75 21 106 278 271 270 250 214 198 189 186 183 184 183 185 189 184 178 179 174 182 185 170 163 161 191 223 250 276 298 302 304 302
272 272 213 232 272 132 114 76 57 51 71 57 319 169 283 252 240 248 236 209 192 189 193 193 193 188 194 191 185 185 185 215 222 208 197 194 213 235 261 280 286 289 291 295
330 328 307 262 12 21 87 92 38 13 29 299 303 358 268 265 264 237 236 230 213 197 201 202 198 198 202 199 194 180 182 240 258 246 245 238 234 237 246 257 260 268 278 278
348 319 317 333 183 187 134 131 149 180 189 270 328 280 269 277 275 230 219 216 222 218 207 197 191 186 174 153 146 145 159 261 291 280 276 270 260 251 254 253 249 253 251 256
185 272 304 322 341 118 67 29 148 123 99 91 292 297 299 296 295 251 226 212 209 207 200 177 149 135 129 112 110 127 138 243 295 289 286 285 283 274 269 270 266 265 264 270
159 239 310 333 31 34 129 141 81 93 127 123 249 240 232 235 232 237 220 201 204 176 152 143 130 122 121 126 127 113 128 213 275 291 288 297 287 283 279 282 283 280 278 278
103 117 322 360 28 315 25 48 96 110 141 140 178 259 228 198 195 188 196 191 180 157 147 134 128 127 123 110 100 63 333 307 301 299 297 305 297 291 291 284 278 275 273 274
102 110 315 289 271 203 158 172 137 125 101 128 135 264 266 169 168 160 167 168 153 141 141 138 134 120 98 67 336 316 305 301 291 290 296 297 294 293 291 283 278 274 272 270
110 96 41 347 341 349 131 202 152 131 113 123 135 238 249 133 140 155 151 150 146 141 133 123 110 99 269 275 288 296 298 295 297 300 302 302 298 291 284 279 278 275 272 271
112 111 150 195 241 260 257 234 151 117 124 152 174 179 185 157 159 169 165 158 144 136 140 148 189 269 271 275 283 292 297 294 299 302 299 295 289 283 281 281 281 278 274 273
103 128 226 245 267 274 252 218 153 142 162 159 179 171 196 190 183 182 163 136 126 139 149 161 207 254 273 281 288 290 290 294 296 298 296 289 288 288 287 287 285 283 280 281
105 142 8 323 314 324 305 271 143 127 127 131 137 175 204 181 146 139 142 140 145 159 170 196 243 273 278 274 276 284 286 289 290 295 293 293 296 295 292 288 286 285 282 279
134 129 102 290 312 360 320 232 134 116 137 147 165 189 170 158 165 170 168 158 159 169 191 234 262 263 261 256 257 267 279 289 299 297 296 298 297 294 290 293 295 286 282 276
152 131 134 239 12 327 263 263 117 102 70 120 133 155 166 170 174 181 173 161 167 182 208 244 254 256 255 257 264 274 289 300 302 300 298 299 299 296 294 292 289 284 277 274
151 140 132 127 203 280 288 248 138 119 68 135 137 149 147 132 102 291 197 173 181 191 199 213 221 225 255 273 276 293 303 304 304 300 297 297 297 297 299 298 293 287 283 280
106 112 126 152 176 238 243 234 136 99 100 213 148 151 152 133 123 244 210 184 179 178 188 203 227 246 290 280 283 302 301 303 298 294 293 295 295 296 298 294 291 287 283 280
109 91 152 185 210 253 235 203 120 135 222 201 165 163 161 171 195 203 183 181 175 174 187 183 187 274 275 278 292 301 300 294 287 291 297 299 298 297 293 291 289 290 289 289
173 173 200 161 181 249 232 158 173 204 188 170 168 170 164 172 170 164 169 171 170 175 201 189 235 283 283 288 298 299 294 287 293 298 301 302 302 302 307 300 298 295 293 294
169 186 183 182 209 227 207 190 194 161 164 176 171 174 157 156 166 169 171 174 183 190 214 216 241 289 295 294 290 289 288 295 303 306 305 304 305 303 300 297 299 301 297 291
296 185 138 235 260 237 208 176 166 166 169 173 167 166 159 161 168 166 169 182 194 211 217 217 258 297 294 293 296 283 289 300 306 307 307 307 307 306 305 300 294 294 293 292
260 359 31 299 283 342 199 191 177 168 153 153 159 164 164 158 163 167 175 187 195 206 212 206 233 269 280 290 297 296 300 308 309 308 307 308 303 301 304 302 292 288 274 260
242 183 181 236 235 193 217 210 173 161 167 165 160 166 168 162 165 165 175 185 188 195 196 215 251 269 276 287 295 297 300 305 308 311 312 307 305 305 304 306 307 298 284 282